This is the latest recevied weather packets stored in our database for station/object KE5OYL. If no packets are shown the sender has not sent any weather packets the latest 10 day(s).
| Time | Temp. | Humidity | Pressure | Rain* | Wind** | Luminosity | Snow |
|---|---|---|---|---|---|---|---|
| 1777678472 | 16.67° C | 64% | 1016.3 hPa | 0 mm | - | 71 W/m² | - |
| 1777678167 | 16.67° C | 64% | 1016.3 hPa | 0 mm | - | 68 W/m² | - |
| 1777677865 | 16.67° C | 64% | 1016.4 hPa | 0 mm | - | 70 W/m² | - |
| 1777677561 | 16.67° C | 63% | 1016.4 hPa | 0 mm | - | 68 W/m² | - |
| 1777677260 | 16.67° C | 63% | 1016.4 hPa | 0 mm | - | 50 W/m² | - |
| 1777676958 | 16.67° C | 62% | 1016.3 hPa | 0 mm | - | 49 W/m² | - |
| 1777676657 | 16.67° C | 61% | 1016.3 hPa | 0 mm | - | 58 W/m² | - |
| 1777676354 | 17.22° C | 61% | 1015.8 hPa | 0 mm | - | 92 W/m² | - |
| 1777676051 | 16.67° C | 60% | 1015.9 hPa | 0 mm | - | 97 W/m² | - |
| 1777675746 | 16.67° C | 60% | 1015.8 hPa | 0 mm | - | 90 W/m² | - |
| 1777675444 | 16.67° C | 60% | 1016.1 hPa | 0 mm | - | 83 W/m² | - |
| 1777675141 | 16.67° C | 60% | 1016.1 hPa | 0 mm | - | 88 W/m² | - |
| 1777674837 | 16.67° C | 60% | 1016 hPa | 0 mm | - | 108 W/m² | - |
| 1777674533 | 17.22° C | 60% | 1016 hPa | 0 mm | - | 121 W/m² | - |
| 1777674231 | 17.22° C | 59% | 1015.9 hPa | 0 mm | - | 112 W/m² | - |
| 1777673927 | 17.22° C | 59% | 1015.9 hPa | 0 mm | - | 98 W/m² | - |
| 1777673624 | 17.22° C | 59% | 1016.1 hPa | 0 mm | - | 99 W/m² | - |
| 1777673323 | 17.22° C | 60% | 1016 hPa | 0 mm | - | 106 W/m² | - |
| 1777673019 | 16.67° C | 59% | 1015.9 hPa | 0 mm | - | 93 W/m² | - |
| 1777672716 | 17.22° C | 58% | 1015.8 hPa | 0 mm | - | 88 W/m² | - |
| 1777672412 | 17.22° C | 58% | 1015.7 hPa | 0 mm | - | 84 W/m² | - |
| 1777672108 | 17.22° C | 58% | 1015.8 hPa | 0 mm | - | 75 W/m² | - |
| 1777671803 | 16.67° C | 58% | 1015.9 hPa | 0 mm | - | 69 W/m² | - |
| 1777671499 | 16.67° C | 58% | 1016.1 hPa | 0 mm | - | 73 W/m² | - |
| 1777671195 | 17.22° C | 58% | 1016 hPa | 0 mm | - | 75 W/m² | - |
* Rain latest hour (hover to see other rain measurements)
** Current wind speed in m/s (hover to see current wind gust speed)